Location: Zagreb
(45.8000°N, 16.0000°E)
Time: 15:38:21
(UTC+02:00)

Transit 2A Rocket - Pass Details

Date: 12 August 2022
Orbit: 593 x 907 km, 66.7° (Epoch: 25 September)

Event Time Altitude Azimuth Distance (km) Brightness Sun altitude
Rises 20:42:15 0° 252° (WSW) 2,953 8.8 -6.0°
Reaches altitude 10° 20:45:05 10° 269° (W) 2,003 8.3 -6.5°
Maximum altitude 20:48:27 21° 318° (NW) 1,403 7.5 -7.0°
Drops below altitude 10° 20:51:45 10° 7° (N) 1,945 7.4 -7.5°
Sets 20:54:28 0° 25° (NNE) 2,841 8.0 -7.9°
